Regional Weather Roundup
Issued by NWS

Home | Current Version | Previous Version | Graphics & Text | Print | Product List | Glossary On
Versions: 1 2 3 4 5 6 7 8 9 10 11 12 13 14 15 16 17 18 19 20 21 22 23 24 25 26 27 28 29 30 31 32 33 34 35 36 37 38 39 40 41 42 43 44
101
ASUS44 KJAN 052303
RWRMS

MISSISSIPPI HOURLY WEATHER ROUNDUP
NATIONAL WEATHER SERVICE JACKSON MS
500 PM CST THU MAR 05 2015

NOTE: "FAIR: INDICATES FEW OR NO CLOUDS BELOW 12,000 FEET WITH NO
SIGNIFICANT WEATHER AND/OR OBSTRUCTIONS TO VISIBILITY.

MSZ001>002-007>008-010>013-018>021-025>028-034>036-060000-
NORTHWEST MISSISSIPPI

CITY           SKY/WX    TMP DP  RH WIND       PRES   REMARKS
CLARKSDALE     FAIR      28  18  64 CALM      30.56R
CLEVELAND      FAIR      32  20  62 N15       30.54R WCI  21
GREENWOOD      SUNNY     32  18  56 N14G21    30.50R WCI  22
GREENVILLE     SUNNY     33  15  47 MISG      30.53R
OLIVE BRANCH   SUNNY     28  14  54 N17       30.53R WCI  16
OXFORD         FAIR      30  16  55 N14G24    30.50R WCI  20
TUNICA         CLEAR     30  18  59 N7        30.56S WCI  23
$$

MSZ003>006-009-014>017-022>024-029>033-037>039-060000-
NORTHEAST MISSISSIPPI

CITY           SKY/WX    TMP DP  RH WIND       PRES   REMARKS
COLUMBUS AFB   MOSUNNY   31  21  66 N16       30.44R WCI  20
CORINTH        FAIR      30  14  51 N12G18    30.47R WCI  21
GOLDN TRIANGLE MOSUNNY  N/A N/A N/A N18G25    30.43R
STARKVILLE     FAIR      32  23  69 N7        30.45R WCI  26
TUPELO         SUNNY     32  15  49 N14       30.46R WCI  22
$$

MSZ040-058-060000-
CENTRAL MISSISSIPPI

CITY           SKY/WX    TMP DP  RH WIND       PRES   REMARKS
JACKSON INTL   PTSUNNY   33  24  69 N13       30.44R WCI  24
JACKSON HAWKNS SUNNY     32  24  72 N7        30.45R WCI  26
MERIDIAN KEY   PTSUNNY   32  25  75 N16       30.41R WCI  21
MERIDIAN NAS   CLOUDY    31  24  75 N16G22    30.42R WCI  20
VICKSBURG      MOSUNNY   34  20  56 N20       30.50S WCI  23
$$

MSZ059>079-060000-
SOUTH MISSISSIPPI

CITY           SKY/WX    TMP DP  RH WIND       PRES   REMARKS
BROOKHAVEN       N/A     32  30  93 CALM      30.43R
HATTIESBURG    CLOUDY    35  29  78 N10G22    30.38R WCI  27
MCCOMB         PTSUNNY   33  23  66 N17G28    30.39R WCI  22
NATCHEZ        MOSUNNY   32  21  64 N20G30    30.45S WCI  20
PINE BELT      CLOUDY    34  27  75 N21       30.37R WCI  22
$$

MSZ080>082-060000-
COASTAL MISSISSIPPI

CITY           SKY/WX    TMP DP  RH WIND       PRES   REMARKS
BAY ST LOUIS   CLOUDY    36  28  75 N16G28    30.31R WCI  26
BILOXI         CLOUDY    38  33  82 N18       30.27R WCI  29
PASCAGOULA     CLOUDY    38  31  76 N22G33    30.27R WCI  27
GULFPORT       CLOUDY    38  30  73 N22G32    30.29R WCI  27
$$



USA.gov is the U.S. government's official web portal to all federal, state and local government web resources and services.